When you browse on this site, cookies collect data to enhance your experience and personalize the content and advertising you see.
Visit our Privacy Policy to learn more. By continuing to use the site, you agree to this use of cookies and data.
  • In Hungary
  • List of Countries
  • For 7 days
  • Water Temperature
  • Weather Map
  • News
  • Weather Widgets
  • user-avatar
    Login

    Hourly Weather Boznowice

    Today, 4 April, Saturday

    Time Temperature Precipitation Wind Pressure Humidity
    00:00 +3°C° 0 mm 2 mps 741 mmHg 80%
    01:00 +3°C° 0 mm 2 mps 742 mmHg 85%
    02:00 +3°C° 0 mm 2 mps 742 mmHg 87%
    03:00 +2°C° 0 mm 2 mps 742 mmHg 89%
    04:00 +2°C° 0 mm 1 mps 742 mmHg 91%
    05:00 +3°C° 0 mm 1 mps 743 mmHg 88%
    06:00 +4°C° 0 mm 1 mps 744 mmHg 84%
    07:00 +5°C° 0 mm 1 mps 744 mmHg 80%
    08:00 +7°C° 0 mm 1 mps 745 mmHg 72%
    09:00 +8°C° 0 mm 1 mps 745 mmHg 64%
    10:00 +10°C° 0 mm 1 mps 745 mmHg 56%
    11:00 +10°C° 0 mm 1 mps 746 mmHg 55%
    12:00 +11°C° 0 mm 1 mps 746 mmHg 53%
    13:00 +11°C° 0 mm 1 mps 746 mmHg 52%
    14:00 +11°C° 0 mm 1 mps 746 mmHg 54%
    15:00 +10°C° 0 mm 2 mps 746 mmHg 56%
    16:00 +10°C° 0 mm 2 mps 746 mmHg 57%
    17:00 +10°C° 0 mm 1 mps 747 mmHg 63%
    18:00 +8°C° 0 mm 1 mps 747 mmHg 69%
    19:00 +7°C° 0 mm 1 mps 747 mmHg 75%
    20:00 +7°C° 0 mm 1 mps 748 mmHg 76%
    21:00 +6°C° 0 mm 1 mps 748 mmHg 77%
    22:00 +6°C° 0 mm 1 mps 749 mmHg 79%
    23:00 +5°C° 0 mm 1 mps 749 mmHg 79%

    Tomorrow, 5 April, Sunday

    Time Temperature Precipitation Wind Pressure Humidity
    00:00 +5°C° 0 mm 1 mps 749 mmHg 80%
    01:00 +4°C° 0 mm 1 mps 750 mmHg 81%
    02:00 +4°C° 0 mm 1 mps 749 mmHg 82%
    03:00 +3°C° 0 mm 1 mps 749 mmHg 82%
    04:00 +3°C° 0 mm 1 mps 749 mmHg 83%
    05:00 +4°C° 0 mm 1 mps 750 mmHg 79%
    06:00 +4°C° 0 mm 2 mps 750 mmHg 76%
    07:00 +4°C° 0 mm 2 mps 750 mmHg 72%
    08:00 +5°C° 0 mm 3 mps 750 mmHg 65%
    09:00 +8°C° 0 mm 3 mps 750 mmHg 59%
    10:00 +10°C° 0 mm 4 mps 750 mmHg 52%
    11:00 +11°C° 0 mm 4 mps 750 mmHg 50%
    12:00 +12°C° 0 mm 4 mps 750 mmHg 47%
    13:00 +13°C° 0 mm 4 mps 750 mmHg 45%
    14:00 +13°C° 0 mm 4 mps 749 mmHg 45%
    15:00 +13°C° 0 mm 4 mps 749 mmHg 46%
    16:00 +13°C° 0 mm 4 mps 748 mmHg 46%
    17:00 +11°C° 0 mm 4 mps 748 mmHg 53%
    18:00 +9°C° 0 mm 3 mps 748 mmHg 59%
    19:00 +7°C° 0 mm 3 mps 748 mmHg 66%
    20:00 +7°C° 0 mm 3 mps 748 mmHg 68%
    21:00 +5°C° 0 mm 3 mps 748 mmHg 70%
    22:00 +4°C° 0 mm 3 mps 749 mmHg 72%
    23:00 +5°C° 0 mm 2 mps 748 mmHg 73%

    Day after tomorrow, 6 April, Monday

    Time Temperature Precipitation Wind Pressure Humidity
    00:00 +5°C° 0 mm 2 mps 748 mmHg 74%
    01:00 +4°C° 0 mm 2 mps 748 mmHg 76%
    02:00 +4°C° 0 mm 2 mps 748 mmHg 76%
    03:00 +4°C° 0 mm 2 mps 748 mmHg 77%
    04:00 +4°C° 0 mm 2 mps 748 mmHg 77%
    05:00 +5°C° 0 mm 2 mps 748 mmHg 75%
    06:00 +6°C° 0 mm 2 mps 748 mmHg 72%
    07:00 +7°C° 0 mm 3 mps 748 mmHg 69%
    08:00 +9°C° 0 mm 3 mps 748 mmHg 63%
    09:00 +12°C° 0 mm 4 mps 748 mmHg 56%
    10:00 +14°C° 0 mm 4 mps 748 mmHg 50%
    11:00 +15°C° 0 mm 4 mps 748 mmHg 48%
    12:00 +16°C° 0 mm 5 mps 748 mmHg 46%
    13:00 +16°C° 0 mm 5 mps 748 mmHg 44%
    14:00 +16°C° 0 mm 5 mps 748 mmHg 45%
    15:00 +16°C° 0 mm 5 mps 748 mmHg 46%
    16:00 +16°C° 0 mm 5 mps 747 mmHg 47%
    17:00 +14°C° 0 mm 4 mps 747 mmHg 53%
    18:00 +12°C° 0 mm 4 mps 747 mmHg 58%
    19:00 +10°C° 0 mm 3 mps 747 mmHg 63%
    20:00 +9°C° 0 mm 3 mps 748 mmHg 65%
    21:00 +8°C° 0 mm 3 mps 748 mmHg 66%
    22:00 +7°C° 0 mm 2 mps 749 mmHg 68%
    23:00 +7°C° 0 mm 2 mps 749 mmHg 69%

    7 April, Tuesday

    Time Temperature Precipitation Wind Pressure Humidity
    00:00 +6°C° 0 mm 2 mps 749 mmHg 70%
    01:00 +6°C° 0 mm 2 mps 749 mmHg 70%
    02:00 +5°C° 0 mm 2 mps 749 mmHg 71%
    03:00 +5°C° 0 mm 2 mps 749 mmHg 71%
    04:00 +5°C° 0 mm 2 mps 749 mmHg 72%
    05:00 +6°C° 0 mm 2 mps 750 mmHg 70%
    06:00 +6°C° 0 mm 2 mps 750 mmHg 68%
    07:00 +7°C° 0 mm 3 mps 750 mmHg 66%
    08:00 +9°C° 0 mm 3 mps 750 mmHg 58%
    09:00 +11°C° 0 mm 3 mps 750 mmHg 51%
    10:00 +13°C° 0 mm 4 mps 751 mmHg 44%
    11:00 +14°C° 0 mm 4 mps 751 mmHg 42%
    12:00 +16°C° 0 mm 3 mps 751 mmHg 41%
    13:00 +17°C° 0 mm 3 mps 751 mmHg 39%
    14:00 +17°C° 0 mm 3 mps 750 mmHg 39%
    15:00 +17°C° 0 mm 3 mps 750 mmHg 40%
    16:00 +17°C° 0 mm 2 mps 750 mmHg 40%
    17:00 +15°C° 0 mm 2 mps 750 mmHg 45%
    18:00 +13°C° 0 mm 2 mps 750 mmHg 50%
    19:00 +10°C° 0 mm 2 mps 750 mmHg 55%
    20:00 +9°C° 0 mm 2 mps 750 mmHg 56%
    21:00 +9°C° 0 mm 2 mps 750 mmHg 57%
    22:00 +8°C° 0 mm 2 mps 750 mmHg 58%
    23:00 +7°C° 0 mm 2 mps 750 mmHg 58%

    8 April, Wednesday

    Time Temperature Precipitation Wind Pressure Humidity
    00:00 +7°C° 0 mm 2 mps 750 mmHg 58%
    01:00 +7°C° 0 mm 2 mps 750 mmHg 58%
    02:00 +7°C° 0 mm 1 mps 750 mmHg 58%
    03:00 +7°C° 0 mm 1 mps 750 mmHg 59%
    04:00 +7°C° 0 mm 1 mps 750 mmHg 59%
    05:00 +8°C° 0 mm 1 mps 750 mmHg 58%
    06:00 +9°C° 0 mm 1 mps 750 mmHg 56%
    07:00 +10°C° 0 mm 1 mps 750 mmHg 55%
    08:00 +12°C° 0 mm 1 mps 750 mmHg 50%
    09:00 +14°C° 0 mm 1 mps 750 mmHg 45%
    10:00 +16°C° 0 mm 1 mps 750 mmHg 41%
    11:00 +18°C° 0 mm 1 mps 750 mmHg 38%
    12:00 +18°C° 0 mm 1 mps 749 mmHg 36%
    13:00 +18°C° 0 mm 2 mps 749 mmHg 33%
    14:00 +18°C° 0 mm 2 mps 749 mmHg 34%
    15:00 +18°C° 0 mm 2 mps 748 mmHg 34%
    16:00 +18°C° 0 mm 2 mps 748 mmHg 35%
    17:00 +16°C° 0 mm 1 mps 748 mmHg 40%
    18:00 +14°C° 0 mm 1 mps 748 mmHg 44%
    19:00 +12°C° 0 mm 1 mps 747 mmHg 48%
    20:00 +11°C° 0 mm 1 mps 747 mmHg 50%
    21:00 +10°C° 0 mm 1 mps 748 mmHg 52%
    22:00 +10°C° 0 mm 1 mps 748 mmHg 54%
    23:00 +8°C° 0 mm 0 mps 748 mmHg 55%

    9 April, Thursday

    Time Temperature Precipitation Wind Pressure Humidity
    00:00 +8°C° 0 mm 0 mps 748 mmHg 56%
    01:00 +8°C° 0 mm 0 mps 748 mmHg 57%
    02:00 +7°C° 0 mm 0 mps 748 mmHg 58%
    03:00 +7°C° 0 mm 0 mps 747 mmHg 59%
    04:00 +7°C° 0 mm 0 mps 747 mmHg 61%
    05:00 +8°C° 0 mm 0 mps 748 mmHg 59%
    06:00 +9°C° 0 mm 0 mps 748 mmHg 58%
    07:00 +10°C° 0 mm 0 mps 748 mmHg 57%
    08:00 +13°C° 0 mm 1 mps 748 mmHg 52%
    09:00 +15°C° 0 mm 1 mps 748 mmHg 48%
    10:00 +18°C° 0 mm 1 mps 748 mmHg 44%
    11:00 +19°C° 0 mm 1 mps 747 mmHg 41%
    12:00 +20°C° 0 mm 1 mps 747 mmHg 39%
    13:00 +20°C° 0 mm 1 mps 747 mmHg 36%
    14:00 +20°C° 0 mm 1 mps 747 mmHg 37%
    15:00 +20°C° 0 mm 1 mps 746 mmHg 37%
    16:00 +20°C° 0 mm 1 mps 746 mmHg 37%
    17:00 +18°C° 0 mm 1 mps 746 mmHg 42%
    18:00 +15°C° 0 mm 1 mps 745 mmHg 47%
    19:00 +13°C° 0 mm 1 mps 745 mmHg 52%
    20:00 +12°C° 0 mm 1 mps 745 mmHg 54%
    21:00 +12°C° 0 mm 1 mps 746 mmHg 55%
    22:00 +10°C° 0 mm 0 mps 746 mmHg 57%
    23:00 +9°C° 0 mm 0 mps 746 mmHg 58%
    Show more